KI6PPU Weather Reports


Display with metric or nautical units.
time (UTC)temp
F
wind
direction
speed
MPH
gust
MPH
rain 1hr
in
rain 24hr
in
rain mn
in
humidity
%
barometer
mb
20260506090900 54 203 0.0 1.0 0.00 0.00 0.00 96 1021.3
20260506090358 54 81 0.0 0.0 0.00 0.00 0.00 96 1021.2
20260506085854 54 81 0.0 0.0 0.00 0.00 0.00 96 1021.2
20260506085351 54 81 0.0 0.0 0.00 0.00 0.00 96 1021.3
20260506084847 54 81 0.0 1.0 0.00 0.00 0.00 96 1021.3
20260506084344 54 291 0.0 0.0 0.00 0.00 0.00 96 1021.3
20260506083841 54 346 0.0 0.0 0.00 0.00 0.00 96 1021.1
20260506083338 54 195 0.0 0.0 0.00 0.00 0.00 96 1021.2
20260506082835 54 195 0.0 0.0 0.00 0.00 0.00 96 1021.2
20260506082332 54 195 0.0 1.0 0.00 0.00 0.00 96 1021.2
20260506081828 55 90 0.0 0.0 0.00 0.00 0.00 96 1021.2
20260506081326 55 90 0.0 1.0 0.00 0.00 0.00 96 1021.2
20260506080823 54 14 0.0 1.0 0.00 0.00 0.00 96 1021.2
20260506080320 54 203 0.0 0.0 0.00 0.00 0.00 96 1021.3
20260506073304 55 198 0.0 0.0 0.00 0.00 0.00 95 1021.1
20260506072801 55 14 0.0 0.0 0.00 0.00 0.00 95 1021.1
20260506072258 55 0 0.0 2.0 0.00 0.00 0.00 95 1020.9
20260506071756 55 106 0.0 1.0 0.00 0.00 0.00 95 1020.9
20260506071254 55 0 0.0 2.0 0.00 0.00 0.00 95 1021.0
20260506070750 55 8 0.0 0.0 0.00 0.00 0.00 95 1021.0
20260506070247 55 23 0.0 1.0 0.00 0.00 0.00 94 1020.7
20260506062224 55 106 0.0 0.0 0.00 0.04 0.04 95 1020.4
20260506061720 55 90 0.0 0.0 0.00 0.04 0.04 95 1020.4
20260506061218 55 195 0.0 0.0 0.00 0.04 0.04 95 1020.5
20260506060716 55 195 0.0 1.0 0.00 0.04 0.04 95 1020.3
20260506060213 55 103 0.0 1.0 0.00 0.04 0.04 95 1020.3
20260506051145 55 81 0.0 0.0 0.00 0.04 0.04 94 1019.8
20260506050643 55 81 0.0 0.0 0.00 0.04 0.04 94 1019.9
20260506050140 55 81 0.0 0.0 0.00 0.04 0.04 94 1019.7
20260506045133 55 60 0.0 1.0 0.00 0.04 0.04 93 1019.7
20260506044631 55 203 0.0 0.0 0.00 0.04 0.04 93 1019.7
20260506044128 55 200 1.0 1.0 0.00 0.04 0.04 93 1019.6
20260506043625 55 203 1.0 1.0 0.00 0.04 0.04 93 1019.7
20260506043123 55 215 1.0 1.0 0.00 0.04 0.04 93 1019.6
20260506042622 56 188 0.0 0.0 0.00 0.04 0.04 93 1019.7
20260506042119 56 195 1.0 1.0 0.00 0.04 0.04 93 1019.4
20260506041618 56 278 0.0 0.0 0.00 0.04 0.04 92 1019.4
20260506041114 56 278 0.0 1.0 0.00 0.04 0.04 93 1019.3
20260506040612 56 66 0.0 0.0 0.00 0.04 0.04 92 1019.3
20260506040108 56 350 2.0 2.0 0.00 0.04 0.04 92 1019.2
20260506035606 56 194 0.0 0.0 0.00 0.04 0.04 92 1019.1
20260506035102 56 110 0.0 2.0 0.00 0.04 0.04 92 1018.9
20260506034559 56 194 0.0 1.0 0.00 0.04 0.04 92 1019.0
20260506034056 56 90 0.0 0.0 0.00 0.04 0.04 91 1019.0
20260506033553 57 90 0.0 0.0 0.00 0.04 0.04 91 1019.1
20260506033050 57 81 0.0 1.0 0.00 0.04 0.04 90 1019.1
20260506032548 57 15 1.0 1.0 0.00 0.04 0.04 90 1018.8
20260506032044 57 353 0.0 1.0 0.00 0.04 0.04 90 1019.0
20260506031542 57 352 0.0 0.0 0.00 0.04 0.04 90 1018.8
20260506031039 57 352 0.0 0.0 0.00 0.04 0.04 89 1018.5
20260506030537 57 352 0.0 0.0 0.00 0.04 0.04 90 1018.5
20260506030034 57 352 0.0 0.0 0.00 0.04 0.04 89 1018.5
20260506025531 58 74 0.0 0.0 0.00 0.04 0.04 89 1018.3
20260506025027 57 111 0.0 1.0 0.00 0.04 0.04 88 1018.3
20260506024524 58 90 0.0 2.0 0.00 0.04 0.04 88 1018.3
20260506024020 58 99 0.0 0.0 0.00 0.04 0.04 86 1018.2
20260506023516 58 180 0.0 0.0 0.00 0.04 0.04 86 1018.2
20260506023014 59 114 0.0 1.0 0.00 0.04 0.04 85 1018.2
20260506022511 59 206 1.0 2.0 0.00 0.04 0.04 84 1018.1
20260506022009 59 105 1.0 3.0 0.00 0.04 0.04 84 1018.1
20260506021506 59 194 0.0 4.0 0.00 0.04 0.04 82 1018.1
20260506021003 59 81 0.0 3.0 0.00 0.04 0.04 83 1018.0
20260506020501 59 159 2.0 3.0 0.00 0.04 0.04 83 1017.7
20260506015957 59 152 2.0 6.0 0.00 0.04 0.04 83 1017.6
20260506015455 59 151 3.0 5.0 0.00 0.04 0.04 84 1017.6
20260506014952 59 140 0.0 5.0 0.00 0.04 0.04 83 1017.9
20260506014449 59 144 3.0 6.0 0.00 0.04 0.04 83 1017.7
20260506013945 59 173 1.0 4.0 0.00 0.04 0.04 83 1018.0
20260506013443 59 147 2.0 3.0 0.00 0.04 0.04 83 1017.8
20260506012939 59 41 0.0 4.0 0.00 0.04 0.04 83 1018.0
20260506012436 59 114 2.0 5.0 0.00 0.04 0.04 83 1017.9
20260506011933 59 95 2.0 3.0 0.00 0.04 0.04 84 1018.0
20260506011431 59 120 1.0 3.0 0.00 0.04 0.04 85 1017.9
20260506010927 59 74 1.0 2.0 0.00 0.04 0.04 86 1017.8
20260506010426 59 123 0.0 3.0 0.00 0.04 0.04 85 1017.8
20260506005922 59 68 0.0 2.0 0.00 0.04 0.04 86 1017.8
20260506005420 59 81 2.0 2.0 0.00 0.04 0.04 86 1018.1
20260506004915 59 74 0.0 1.0 0.00 0.04 0.04 85 1017.9
20260506004413 59 48 0.0 2.0 0.00 0.04 0.04 85 1018.0
20260506003909 58 81 0.0 2.0 0.00 0.04 0.04 85 1017.7
20260506003405 59 120 0.0 2.0 0.00 0.04 0.04 85 1017.7
20260506002902 59 66 0.0 1.0 0.00 0.04 0.04 86 1017.8
20260506002358 59 40 0.0 2.0 0.00 0.04 0.04 86 1017.8
20260506001853 59 106 0.0 2.0 0.00 0.04 0.04 86 1017.8
20260506001351 59 98 1.0 1.0 0.00 0.04 0.04 86 1017.9
20260506000848 59 69 0.0 2.0 0.00 0.04 0.04 85 1017.7
20260506000346 59 114 0.0 1.0 0.00 0.04 0.04 86 1017.7
20260505235842 59 71 0.0 2.0 0.00 0.04 0.04 85 1017.6
20260505235340 59 52 2.0 2.0 0.00 0.04 0.04 86 1017.6
20260505234836 59 90 0.0 1.0 0.00 0.04 0.04 85 1017.6
20260505234334 59 8 0.0 2.0 0.00 0.04 0.04 85 1017.5
20260505233831 59 60 0.0 2.0 0.00 0.04 0.04 83 1017.7
20260505233329 59 151 1.0 4.0 0.00 0.04 0.04 81 1017.5
20260505232826 59 132 4.0 5.0 0.00 0.04 0.04 83 1017.5
20260505232324 59 135 2.0 3.0 0.00 0.04 0.04 83 1017.5
20260505231820 59 117 0.0 2.0 0.00 0.04 0.04 81 1017.6
20260505231318 60 123 2.0 2.0 0.00 0.04 0.04 82 1017.7
20260505230816 59 270 0.0 5.0 0.00 0.04 0.04 80 1017.6
20260505230313 59 191 2.0 3.0 0.00 0.04 0.04 81 1017.6
20260505225809 60 120 1.0 3.0 0.00 0.04 0.04 81 1017.6
20260505225307 60 90 4.0 5.0 0.00 0.04 0.04 79 1017.6
20260505224801 61 97 1.0 3.0 0.00 0.04 0.04 81 1017.5
20260505224300 61 264 0.0 2.0 0.00 0.04 0.04 77 1017.5
20260505223757 62 74 0.0 2.0 0.00 0.04 0.04 79 1017.6
20260505223253 62 356 2.0 2.0 0.00 0.04 0.04 78 1017.4
20260505222749 61 63 2.0 3.0 0.00 0.04 0.04 76 1017.8
20260505222246 61 99 0.0 2.0 0.00 0.04 0.04 78 1017.5
20260505221743 61 285 2.0 3.0 0.00 0.04 0.04 77 1017.7
20260505221239 61 0 0.0 2.0 0.00 0.04 0.04 81 1017.5
20260505220736 60 96 1.0 2.0 0.00 0.04 0.04 77 1017.9
20260505220233 60 254 1.0 3.0 0.00 0.04 0.04 81 1017.9
20260505215732 60 0 2.0 2.0 0.00 0.04 0.04 81 1017.8
20260505215229 60 270 2.0 3.0 0.00 0.04 0.04 80 1017.8
20260505214727 60 352 0.0 1.0 0.00 0.04 0.04 80 1017.9
20260505214224 60 357 2.0 3.0 0.00 0.04 0.04 83 1017.9
20260505213721 60 99 0.0 1.0 0.00 0.04 0.04 80 1017.9
20260505213218 60 356 2.0 3.0 0.00 0.04 0.04 79 1018.1
20260505212714 60 90 0.0 2.0 0.00 0.04 0.04 79 1017.9
20260505212212 60 180 0.0 2.0 0.00 0.04 0.04 80 1017.8
20260505211708 59 77 2.0 3.0 0.00 0.04 0.04 82 1018.0
20260505211206 59 26 2.0 3.0 0.00 0.04 0.04 81 1018.1
20260505210702 59 308 0.0 3.0 0.00 0.04 0.04 80 1018.1
20260505210159 59 194 0.0 3.0 0.00 0.04 0.04 81 1017.8
20260505205657 59 234 0.0 5.0 0.00 0.04 0.04 82 1017.9
20260505205155 59 261 0.0 4.0 0.00 0.04 0.04 81 1017.8
20260505204651 59 0 1.0 2.0 0.00 0.04 0.04 82 1018.0
20260505204149 59 139 2.0 3.0 0.00 0.04 0.04 81 1018.0
20260505203646 59 23 0.0 2.0 0.00 0.04 0.04 81 1017.9
20260505203142 59 163 2.0 3.0 0.00 0.04 0.04 80 1017.8
20260505202638 58 185 0.0 6.0 0.00 0.04 0.04 81 1018.0
20260505202134 59 90 0.0 2.0 0.00 0.04 0.04 84 1018.0
20260505201631 59 187 1.0 6.0 0.00 0.04 0.04 83 1017.8
20260505201129 59 117 3.0 4.0 0.00 0.04 0.04 81 1018.0
20260505200627 59 125 0.0 4.0 0.00 0.04 0.04 80 1018.0
20260505200124 59 98 0.0 3.0 0.00 0.04 0.04 81 1017.9
20260505195620 59 253 2.0 4.0 0.00 0.04 0.04 82 1018.1
20260505195117 59 135 3.0 5.0 0.00 0.04 0.04 81 1018.0
20260505194614 59 206 4.0 5.0 0.00 0.04 0.04 82 1018.0
20260505194110 58 270 2.0 4.0 0.00 0.04 0.04 83 1018.0
20260505193607 59 194 2.0 6.0 0.00 0.04 0.04 82 1017.9
20260505193104 59 220 3.0 4.0 0.00 0.04 0.04 84 1018.1
20260505192603 59 315 2.0 3.0 0.00 0.04 0.04 82 1018.1
20260505192100 59 243 0.0 4.0 0.00 0.04 0.04 84 1018.2
20260505191558 59 188 0.0 4.0 0.00 0.04 0.04 85 1018.0
20260505191056 59 6 1.0 3.0 0.00 0.04 0.04 84 1018.0
20260505190550 59 210 2.0 5.0 0.00 0.04 0.04 84 1017.9
20260505190046 59 352 3.0 3.0 0.00 0.04 0.04 84 1017.9
20260505185543 60 275 2.0 4.0 0.00 0.04 0.04 82 1018.1
20260505185040 60 320 3.0 5.0 0.00 0.04 0.04 79 1018.0
20260505184537 60 338 2.0 3.0 0.00 0.04 0.04 79 1017.8
20260505184033 62 285 1.0 3.0 0.00 0.04 0.04 81 1017.9
20260505183530 62 336 0.0 3.0 0.00 0.04 0.04 81 1017.7
20260505183028 60 154 2.0 4.0 0.00 0.04 0.04 77 1018.0
20260505182524 60 70 2.0 3.0 0.00 0.04 0.04 78 1017.7
20260505182020 61 277 1.0 2.0 0.00 0.04 0.04 80 1017.6
20260505181517 59 192 1.0 3.0 0.00 0.04 0.04 80 1017.8
20260505181015 59 270 0.0 4.0 0.00 0.04 0.04 83 1017.6
20260505180510 59 0 2.0 2.0 0.00 0.04 0.04 83 1017.6
20260505180009 59 220 3.0 3.0 0.00 0.04 0.04 79 1017.5
20260505175503 60 291 1.0 3.0 0.00 0.04 0.04 79 1017.6
20260505175000 59 3 2.0 4.0 0.00 0.04 0.04 80 1017.5
20260505174457 59 83 1.0 3.0 0.00 0.04 0.04 83 1017.7
20260505173953 57 107 2.0 4.0 0.00 0.04 0.04 82 1017.5
20260505173450 58 128 2.0 3.0 0.00 0.04 0.04 80 1017.5
20260505172947 59 180 1.0 2.0 0.00 0.04 0.04 79 1017.5
20260505172445 56 0 0.0 3.0 0.00 0.04 0.04 84 1017.4
20260505171944 56 121 0.0 3.0 0.00 0.04 0.04 83 1017.3
20260505171442 57 111 1.0 4.0 0.00 0.04 0.04 85 1017.5
20260505170938 57 221 2.0 2.0 0.00 0.04 0.04 87 1017.5
20260505170435 55 90 0.0 3.0 0.00 0.04 0.04 87 1017.7
20260505165930 55 48 2.0 4.0 0.00 0.04 0.04 87 1017.7
20260505165426 54 96 3.0 4.0 0.00 0.04 0.04 88 1017.6
20260505164922 54 127 3.0 6.0 0.00 0.04 0.04 90 1017.6
20260505164419 54 72 3.0 3.0 0.00 0.04 0.04 90 1017.5
20260505163917 53 115 3.0 4.0 0.00 0.04 0.04 93 1017.6
20260505163416 53 143 4.0 5.0 0.00 0.04 0.04 95 1017.6
20260505162914 52 144 3.0 4.0 0.00 0.04 0.04 97 1017.4
20260505162409 51 195 0.0 4.0 0.00 0.04 0.04 97 1017.4
20260505161907 51 132 2.0 6.0 0.00 0.04 0.04 98 1017.6
20260505161404 51 148 2.0 3.0 0.00 0.04 0.04 98 1017.7
20260505160901 51 139 2.0 4.0 0.00 0.04 0.04 98 1017.4
20260505160359 51 90 3.0 4.0 0.00 0.04 0.04 98 1017.5
20260505153338 51 54 1.0 3.0 0.00 0.04 0.04 99 1017.4
20260505152834 51 246 0.0 3.0 0.00 0.04 0.04 99 1017.4
20260505152331 51 154 1.0 2.0 0.00 0.04 0.04 99 1017.3
20260505151826 52 184 2.0 2.0 0.00 0.04 0.04 99 1017.2
20260505151323 51 114 0.0 2.0 0.00 0.04 0.04 99 1017.3
20260505150819 51 45 0.0 2.0 0.00 0.04 0.04 99 1017.1
20260505150317 51 348 0.0 1.0 0.00 0.04 0.04 99 1017.2
20260505140241 50 355 1.0 1.0 0.00 0.04 0.04 99 1016.7
20260505130205 50 165 0.0 3.0 0.00 0.04 0.04 99 1016.5
20260505124655 50 145 1.0 2.0 0.00 0.04 0.04 99 1016.5
20260505124151 50 114 1.0 1.0 0.00 0.04 0.04 99 1016.3
20260505123647 50 99 0.0 0.0 0.00 0.04 0.04 99 1016.4
20260505123144 50 154 0.0 1.0 0.00 0.04 0.04 99 1016.1
20260505122641 50 135 2.0 2.0 0.00 0.04 0.04 99 1016.3
20260505122138 50 114 0.0 1.0 0.00 0.04 0.04 99 1016.3
20260505121634 50 111 0.0 2.0 0.00 0.04 0.04 99 1016.3
20260505121132 50 78 0.0 3.0 0.00 0.04 0.04 99 1016.3
20260505120627 50 111 0.0 3.0 0.00 0.04 0.04 99 1016.3
20260505120124 50 96 0.0 2.0 0.00 0.04 0.04 99 1016.5
20260505115618 50 165 0.0 2.0 0.00 0.04 0.04 99 1016.2
20260505115116 50 99 0.0 1.0 0.00 0.04 0.04 99 1016.3
20260505114612 50 90 1.0 3.0 0.00 0.04 0.04 99 1016.5
20260505114109 50 102 1.0 1.0 0.00 0.04 0.04 99 1016.4
20260505113605 50 140 0.0 1.0 0.00 0.04 0.04 99 1016.5
20260505113102 50 145 1.0 1.0 0.00 0.04 0.04 99 1016.5
20260505112558 50 172 0.0 2.0 0.00 0.04 0.04 99 1016.7
20260505112056 50 36 0.0 2.0 0.00 0.04 0.04 99 1016.6
20260505111550 50 111 0.0 2.0 0.00 0.04 0.04 99 1016.4
20260505111046 50 114 0.0 2.0 0.00 0.04 0.04 99 1016.4
20260505110543 50 90 0.0 2.0 0.00 0.04 0.04 99 1016.3
20260505102015 50 114 2.0 2.0 0.00 0.04 0.04 99 1016.6
20260505101514 50 125 2.0 4.0 0.00 0.04 0.04 99 1016.8
20260505101010 50 111 1.0 3.0 0.00 0.04 0.04 99 1016.8
20260505100507 50 78 2.0 4.0 0.00 0.04 0.04 99 1016.6
20260505100004 50 142 3.0 5.0 0.00 0.04 0.04 98 1016.4
20260505095500 50 184 2.0 3.0 0.00 0.04 0.04 99 1016.5
20260505094956 50 148 0.0 2.0 0.00 0.04 0.04 98 1016.9
20260505094453 50 103 1.0 2.0 0.00 0.04 0.04 98 1016.8
20260505093949 50 172 0.0 2.0 0.00 0.04 0.04 98 1016.8
20260505093446 50 192 0.0 4.0 0.00 0.04 0.04 98 1016.6
20260505092943 50 139 2.0 3.0 0.00 0.04 0.04 98 1016.9
20260505092441 50 169 1.0 2.0 0.00 0.04 0.04 98 1017.0
20260505091938 50 203 0.0 2.0 0.00 0.04 0.04 98 1017.3
20260505091436 50 114 0.0 2.0 0.00 0.04 0.04 98 1017.0